Total_Precipitation_Accumulation
1.84 2.08 2.38 2.84 3.60 4.32 4.98 5.06 5.22 4.66 4.00 3.40 2.95 2.80 2.55 2.26 2.22 2.10 1.93 1.76 1.56 1.48 1.60 1.44 1.37 1.32 1.39 1.40 1.51 1.63 1.65 1.41 1.59 1.84 1.41 0.98 0.74 0.65 0.54 0.51 0.58 0.61 0.67
1.94 2.32 2.85 3.21 3.21 3.71 4.40 4.44 4.07 3.76 3.28 2.83 2.60 2.41 2.30 2.03 1.84 1.70 1.60 1.41 1.30 1.30 1.31 1.30 1.18 1.15 1.23 1.22 1.30 1.42 1.42 1.26 1.47 1.71 1.70 1.31 1.00 0.78 0.51 0.50 0.52 0.59 0.72
1.80 2.25 2.66 3.06 3.02 3.37 3.47 3.06 2.81 2.78 2.69 2.46 2.32 2.20 2.12 1.94 1.62 1.34 1.21 1.13 1.06 1.04 1.00 0.99 1.02 1.08 1.01 1.07 1.16 1.30 1.45 1.33 1.24 1.45 1.66 1.44 1.14 0.95 0.71 0.65 0.71 0.83 0.92
1.20 1.52 1.86 2.29 2.47 2.52 2.43 2.32 2.24 2.19 2.35 2.32 2.08 1.87 1.52 1.37 1.23 1.09 1.09 1.09 0.98 0.92 0.87 0.87 0.98 1.04 1.02 1.11 0.98 1.03 1.23 1.34 1.19 1.20 1.25 1.29 1.34 1.31 1.03 0.76 0.70 0.81 0.89
0.83 1.04 1.17 1.38 1.65 1.86 1.89 1.82 2.03 2.08 2.07 2.02 1.95 1.89 1.61 1.37 1.26 1.25 1.32 1.23 1.09 0.94 0.85 0.85 0.88 0.97 1.01 1.06 1.04 1.07 1.04 1.09 1.07 1.05 1.06 1.13 1.23 1.22 1.18 0.97 0.79 0.78 0.71
0.65 0.84 0.91 0.96 1.07 1.20 1.29 1.36 1.58 1.77 1.80 1.76 1.74 1.74 1.66 1.50 1.28 1.18 1.18 1.13 1.07 0.97 0.86 0.85 0.92 0.92 0.89 0.91 0.96 0.98 0.96 1.00 1.02 1.01 1.03 1.11 1.10 1.09 1.22 1.10 0.92 0.85 0.72
0.48 0.58 0.65 0.73 0.79 0.81 0.88 1.00 1.19 1.35 1.47 1.53 1.53 1.56 1.67 1.53 1.28 1.07 1.07 1.01 0.91 0.87 0.85 0.82 0.94 1.02 1.00 0.95 0.95 0.98 1.00 1.05 1.07 1.04 1.03 1.07 1.08 1.10 1.20 1.19 1.01 0.92 0.88
0.39 0.39 0.42 0.46 0.57 0.59 0.66 0.77 0.84 0.94 1.07 1.27 1.42 1.36 1.42 1.28 1.13 1.17 1.09 0.94 0.78 0.83 1.00 1.05 1.03 1.05 1.07 1.02 1.12 1.09 1.10 1.15 1.13 1.05 1.17 1.19 1.09 1.20 1.26 1.37 1.41 1.24 1.16
0.35 0.34 0.31 0.30 0.35 0.38 0.44 0.54 0.69 0.84 0.91 1.01 1.20 1.29 1.22 1.15 1.16 1.21 1.15 1.01 0.92 0.86 0.97 1.04 1.09 1.06 1.03 1.06 1.19 1.18 1.22 1.29 1.25 1.24 1.36 1.35 1.31 1.31 1.28 1.43 1.57 1.60 1.49
0.38 0.41 0.31 0.25 0.29 0.31 0.35 0.48 0.62 0.81 0.97 0.98 0.96 1.00 1.15 1.17 1.23 1.22 1.05 0.97 0.96 0.93 0.93 0.92 0.99 1.02 1.01 1.07 1.25 1.27 1.33 1.48 1.47 1.43 1.46 1.47 1.48 1.55 1.49 1.49 1.61 1.72 1.74
0.33 0.36 0.29 0.24 0.30 0.33 0.39 0.49 0.60 0.84 1.02 0.93 0.92 1.00 1.10 1.15 1.17 1.31 1.25 1.11 1.05 1.00 0.95 0.91 0.91 0.94 0.92 0.98 1.13 1.27 1.41 1.52 1.52 1.49 1.53 1.53 1.64 1.67 1.54 1.54 1.59 1.68 1.78
0.32 0.36 0.34 0.36 0.38 0.43 0.47 0.55 0.63 0.78 0.89 0.90 0.95 1.01 1.06 1.09 1.07 1.11 1.17 1.19 1.09 1.02 1.00 1.00 0.97 0.89 0.86 0.94 1.08 1.22 1.38 1.50 1.58 1.62 1.66 1.54 1.57 1.67 1.62 1.60 1.59 1.61 1.77
0.48 0.46 0.48 0.52 0.47 0.47 0.57 0.63 0.70 0.77 0.87 1.03 1.01 0.96 0.99 0.94 0.92 0.95 1.00 1.09 1.14 1.17 1.14 1.11 1.07 1.04 1.10 1.21 1.27 1.30 1.40 1.54 1.60 1.64 1.61 1.57 1.63 1.54 1.58 1.63 1.61 1.60 1.60
0.47 0.43 0.45 0.47 0.50 0.54 0.58 0.63 0.71 0.79 0.88 0.89 0.89 0.89 0.88 0.88 0.94 0.99 1.01 1.05 1.08 1.17 1.20 1.15 1.20 1.24 1.28 1.31 1.32 1.31 1.35 1.38 1.40 1.43 1.40 1.39 1.42 1.44 1.52 1.50 1.49 1.54 1.59
0.43 0.36 0.33 0.43 0.54 0.60 0.59 0.60 0.67 0.78 0.88 0.91 0.85 0.80 0.82 0.87 0.90 0.92 0.95 0.99 1.04 1.07 1.23 1.27 1.36 1.44 1.41 1.30 1.31 1.31 1.21 1.29 1.29 1.27 1.27 1.29 1.35 1.37 1.40 1.31 1.34 1.45 1.52
0.41 0.36 0.36 0.45 0.53 0.55 0.55 0.50 0.54 0.64 0.75 0.83 0.89 0.92 0.90 0.85 0.90 0.93 0.94 0.98 1.07 1.18 1.28 1.33 1.42 1.44 1.33 1.36 1.36 1.34 1.29 1.36 1.35 1.31 1.26 1.16 1.16 1.14 1.15 1.17 1.20 1.30 1.38
0.37 0.44 0.47 0.47 0.50 0.51 0.47 0.47 0.47 0.58 0.79 0.89 0.91 1.01 1.09 1.00 1.07 1.10 1.08 1.10 1.16 1.27 1.34 1.45 1.50 1.50 1.53 1.44 1.31 1.31 1.27 1.33 1.38 1.40 1.39 1.14 0.99 1.07 1.07 1.16 1.12 1.07 1.12
0.38 0.41 0.42 0.42 0.45 0.46 0.47 0.47 0.49 0.57 0.77 0.94 0.98 1.13 1.28 1.20 1.23 1.25 1.26 1.32 1.40 1.44 1.54 1.58 1.52 1.52 1.54 1.45 1.21 1.14 1.07 1.15 1.26 1.33 1.37 1.34 1.26 1.23 1.25 1.29 1.26 1.16 1.12
0.39 0.38 0.41 0.42 0.44 0.49 0.50 0.54 0.66 0.77 0.89 1.01 1.13 1.30 1.46 1.53 1.52 1.49 1.57 1.63 1.66 1.71 1.79 1.85 1.82 1.72 1.68 1.48 1.17 1.04 0.98 1.08 1.14 1.17 1.18 1.17 1.08 1.07 0.99 1.03 1.10 1.13 1.09
0.38 0.41 0.46 0.47 0.47 0.53 0.58 0.65 0.80 0.99 1.12 1.15 1.18 1.27 1.45 1.56 1.60 1.61 1.77 1.92 1.96 1.96 2.00 1.89 1.76 1.67 1.65 1.56 1.26 1.10 1.05 1.16 1.21 1.27 1.25 1.21 1.13 1.05 0.90 0.90 0.99 1.01 1.00
0.42 0.46 0.50 0.56 0.61 0.67 0.77 0.88 0.96 1.07 1.09 1.09 1.13 1.21 1.44 1.72 1.76 1.82 1.90 2.01 2.08 2.13 2.15 2.04 1.92 1.82 1.77 1.71 1.37 1.20 1.16 1.24 1.29 1.24 1.24 1.20 1.13 0.93 0.80 0.76 0.82 0.84 0.87
0.47 0.49 0.51 0.56 0.65 0.75 0.90 0.98 1.00 1.03 1.08 1.09 1.17 1.30 1.55 1.66 1.75 1.90 1.96 2.11 2.22 2.23 2.21 2.21 2.08 1.99 1.90 1.65 1.36 1.16 1.16 1.27 1.37 1.36 1.33 1.28 1.13 0.90 0.77 0.67 0.64 0.66 0.68
0.53 0.57 0.58 0.61 0.68 0.78 0.97 1.10 1.09 1.10 1.10 1.10 1.15 1.25 1.39 1.50 1.63 1.70 1.69 1.78 1.91 1.93 1.97 2.01 1.97 1.96 2.01 1.83 1.42 1.16 1.11 1.20 1.31 1.44 1.50 1.32 1.14 1.01 0.87 0.80 0.72 0.65 0.63
0.65 0.65 0.64 0.66 0.70 0.74 0.92 1.06 1.07 1.10 1.10 1.06 1.03 1.12 1.30 1.38 1.45 1.56 1.58 1.68 1.76 1.82 1.89 1.92 1.87 1.88 1.99 1.95 1.61 1.32 1.16 1.10 1.11 1.17 1.21 1.14 1.08 0.98 0.87 0.79 0.70 0.62 0.65
0.57 0.57 0.58 0.62 0.64 0.70 0.87 1.01 1.04 1.07 1.11 1.08 1.04 1.11 1.22 1.32 1.40 1.52 1.61 1.64 1.66 1.65 1.68 1.72 1.69 1.70 1.81 1.79 1.55 1.33 1.19 1.09 1.09 1.12 1.18 1.17 1.17 1.07 0.98 0.90 0.84 0.82 0.84
0.54 0.56 0.59 0.60 0.58 0.63 0.74 0.85 1.02 1.18 1.23 1.16 1.09 1.08 1.09 1.17 1.25 1.34 1.34 1.27 1.25 1.24 1.23 1.27 1.20 1.19 1.35 1.36 1.12 0.99 1.02 1.03 1.00 1.02 1.10 1.17 1.21 1.16 1.09 1.04 0.98 0.98 0.96